Simultaneous Nadir Overpasses (SNOs) Predictions

Prediction of SNOs between GOES-17 and METOP-B Satellite Orbit:

Table of predicted SNOs for the next 14.0 days since TLE Epoch: 5/21/2022
Index Date Time (GOES-17) GOES-17 Lat,Lon METOP-B Lat,Lon Distance(km) Time Diff (sec)
1 05/22/2022 06:54:57 -0.04,-137.17 -0.99,-141.39 481.45 80
2 05/23/2022 06:36:59 -0.03,-137.16 0.14,-136.40 86.55 80
3 05/24/2022 18:53:11 0.03,-137.16 0.87,-140.97 434.05 80
4 05/25/2022 18:35:12 0.03,-137.15 -0.20,-135.97 133.99 80
5 05/27/2022 06:51:33 -0.03,-137.13 -0.82,-140.57 392.65 80
6 05/28/2022 06:33:35 -0.03,-137.11 0.32,-135.58 174.97 80
7 05/29/2022 18:49:47 0.02,-137.10 0.68,-140.15 346.67 80
8 05/30/2022 18:31:47 0.02,-137.08 -0.40,-135.15 220.51 80
9 06/01/2022 06:50:49 -0.01,-137.05 -0.61,-139.75 307.44 80
10 06/02/2022 06:27:29 -0.01,-137.03 0.48,-134.75 259.25 80
11 06/03/2022 18:46:22 0.00,-137.00 0.52,-139.32 263.72 80
